Weather History for Columbia, MO

Change the Weather History Date:

Saturday, December 1, 2012

  Actual Average Record
Temperature  
Mean Temperature 57 °F 37 °F  
Max Temperature 67 °F 46 °F 68 °F (1982)
Min Temperature 47 °F 28 °F 4 °F (1893)
Degree Days  
Heating Degree Days 8 28  
Month to date heating degree days 8 28  
Since 1 July heating degree days 975 1013  
Cooling Degree Days 0 0  
Month to date cooling degree days 0 0  
Year to date cooling degree days 1896 1249  
Growing Degree Days 8 (Base 50)    
Moisture  
Dew Point 52 °F    
Average Humidity 82    
Maximum Humidity 96    
Minimum Humidity 67    
Precipitation  
Precipitation 0.00 in 0.10 in 0.84 in (1986)
Month to date precipitation 0.00 0.10  
Year to date precipitation 29.14 40.28  
Snow  
Snow 0.00 in 0.10 in 13.00 in (2006)
Month to date snowfall 0.0 0.1  
Since 1 July snowfall 0.0 1.0  
Snow Depth 0.00 in    
Sea Level Pressure  
Sea Level Pressure 29.96 in    
Wind  
Wind Speed 13 mph (SSE)    
Max Wind Speed 22 mph    
Max Gust Speed 30 mph    
Visibility 9 miles    
Events      
T = Trace of Precipitation, MM = Missing Value Source: NWS Daily Summary

Daily Weather History Graph

Daily Weather History Graph

Search for Another Location

Airport:

Trip Planner

Search our weather history database for the weather conditions in past years. The results will help you decide how hot, cold, wet, or windy it might be!

Date:

Astronomy

Dec. 01, 2012 Rise Set
Actual Time 7:08 AM CST 4:47 PM CST
Civil Twilight 6:39 AM CST 5:16 PM CST
Nautical Twilight 6:06 AM CST 5:49 PM CST
Astronomical Twilight 5:34 AM CST 6:21 PM CST
Moon 7:37 PM CST (12/1) 9:22 AM CST (12/1)
Length of Visible Light 10h 37m
Length of Day
9h 38m
Waning Gibbous, 91% of the Moon is Illuminated
Dec 1
Waning Gibbous
Dec 6
Last Quarter
Dec 13
New
Dec 19
First Quarter
Dec 28
Full

Hourly Weather History & Observations

Time (CST) Temp. Dew Point Humidity Pressure Visibility Wind Dir Wind Speed Gust Speed Precip Events Conditions
12:54 AM 48.0 °F 44.1 °F 86% 30.06 in 10.0 mi SSE 10.4 mph - N/A   Clear
1:54 AM 48.0 °F 44.1 °F 86% 30.06 in 10.0 mi SSE 10.4 mph - N/A   Clear
2:54 AM 48.9 °F 45.0 °F 86% 30.06 in 10.0 mi South 10.4 mph - N/A   Partly Cloudy
3:54 AM 48.0 °F 45.0 °F 89% 30.06 in 9.0 mi South 10.4 mph - N/A   Partly Cloudy
4:16 AM 50.0 °F 46.4 °F 87% 30.05 in 9.0 mi SSE 10.4 mph - N/A   Mostly Cloudy
4:45 AM 51.8 °F 48.2 °F 88% 30.05 in 8.0 mi SSE 9.2 mph - N/A   Overcast
4:54 AM 51.1 °F 48.0 °F 89% 30.04 in 8.0 mi SSE 8.1 mph - N/A   Overcast
5:54 AM 52.0 °F 48.9 °F 89% 30.03 in 7.0 mi SE 9.2 mph - N/A   Overcast
6:54 AM 52.0 °F 50.0 °F 93% 30.02 in 7.0 mi SSE 10.4 mph - N/A   Mostly Cloudy
7:54 AM 53.1 °F 50.0 °F 89% 30.01 in 6.0 mi SSE 12.7 mph - N/A   Mostly Cloudy
8:54 AM 55.9 °F 51.1 °F 84% 30.01 in 8.0 mi SSE 11.5 mph - N/A   Overcast
9:54 AM 60.1 °F 52.0 °F 75% 30.00 in 10.0 mi South 18.4 mph 25.3 mph N/A   Overcast
10:54 AM 62.1 °F 53.1 °F 72% 29.98 in 10.0 mi South 15.0 mph - N/A   Overcast
11:54 AM 64.9 °F 54.0 °F 68% 29.94 in 10.0 mi South 15.0 mph 23.0 mph N/A   Scattered Clouds
12:24 PM 64.4 °F 55.4 °F 73% 29.93 in 10.0 mi South 15.0 mph 23.0 mph N/A   Mostly Cloudy
12:54 PM 66.0 °F 55.0 °F 68% 29.91 in 10.0 mi South 17.3 mph 23.0 mph N/A   Mostly Cloudy
1:41 PM 66.2 °F 55.4 °F 68% 29.89 in 10.0 mi South 20.7 mph 27.6 mph N/A   Scattered Clouds
1:52 PM 66.2 °F 55.4 °F 68% 29.89 in 10.0 mi South 17.3 mph 24.2 mph N/A   Mostly Cloudy
1:54 PM 66.0 °F 55.0 °F 68% 29.89 in 10.0 mi South 18.4 mph - N/A   Mostly Cloudy
2:54 PM 66.9 °F 55.0 °F 66% 29.88 in 10.0 mi South 15.0 mph 20.7 mph N/A   Mostly Cloudy
3:54 PM 66.0 °F 55.0 °F 68% 29.88 in 10.0 mi South 10.4 mph - N/A   Mostly Cloudy
3:58 PM 66.2 °F 55.4 °F 68% 29.89 in 10.0 mi SSE 12.7 mph - N/A   Overcast
4:54 PM 64.9 °F 55.0 °F 70% 29.87 in 10.0 mi South 10.4 mph - N/A   Mostly Cloudy
5:54 PM 64.9 °F 55.0 °F 70% 29.88 in 10.0 mi South 11.5 mph - N/A   Overcast
6:54 PM 64.9 °F 55.0 °F 70% 29.88 in 10.0 mi South 10.4 mph - N/A   Overcast
7:54 PM 66.0 °F 55.0 °F 68% 29.88 in 10.0 mi South 17.3 mph 25.3 mph N/A   Overcast
8:54 PM 66.0 °F 55.9 °F 70% 29.88 in 10.0 mi South 16.1 mph - N/A   Overcast
9:54 PM 66.0 °F 55.9 °F 70% 29.88 in 10.0 mi South 13.8 mph - N/A   Overcast
10:54 PM 66.0 °F 55.9 °F 70% 29.90 in 10.0 mi SSW 13.8 mph - N/A   Overcast
11:54 PM 64.9 °F 55.9 °F 73% 29.90 in 10.0 mi South 10.4 mph - N/A   Mostly Cloudy